Starlink 30295

operational
NORAD ID: 57683 Int'l Des: 2023-124 Owner: SPXS Country: US Constellation: starlink
LEOCIRCULAR

About Starlink 30295

Description loading...

Live Position

Loading 3D Globe...

Upcoming Passes

Altitude History

Altitude vs Time

uPlot chart will show altitude changes over time

Two-Line Element Set

1 57683U 23124W 26035.18315382 -.00000291 00000-0 23148-5 0 9994
2 57683 53.1621 2.7049 0001323 93.1091 267.0061 15.30191869138437
Epoch: Feb 4, 2026 • Age: 15 hours

Current Status

Altitude 479.2 km
Velocity 7.63 km/s
Sub-Earth Point 45.42°N, 70.58°E
Launch Date Aug 22, 2023
Age 2.4 years
Type internet

Technical Details

Classification Payload
Mass 730.00 kg
Dry Mass 700.00 kg
Total Mass 730.00 kg
Length 0.30 m
Diameter 4.10 m
Span 29.00 m
Shape Box + pan
Manufacturer SPXS
Bus Type Starlink V2M
Phase Status In Orbit
Owner/State SPXS/US

Large Constellations

Loading constellations...